Location: DARK SKY Beskydy - Park tmavé oblohy, www.darkskybeskydy.cz
(49.4926°N, 18.5016°E)
Time: 11:16:32
(UTC+02:00)

Vanguard 1 - Pass Details

Date: 26 February 2024
Orbit: 653 x 3825 km, 34.2° (Epoch: 12 April)

Event Time Altitude Azimuth Distance (km) Brightness Sun altitude
Rises 01:10:26 0° 277° (W) 7,269 14.4 -46.8°
Enters shadow 01:15:15 - 269° (W) 6,621 14.0 -46.5°
Reaches altitude 10° 01:15:50 10° 268° (W) 6,551 - -46.4°
Maximum altitude 01:33:35 32° 217° (SW) 5,283 - -44.9°
Drops below altitude 10° 01:50:51 10° 164° (SSE) 6,307 - -43.3°
Exits shadow 01:52:52 - 160° (SSE) 6,552 14.0 -43.0°
Sets 01:56:00 0° 155° (SSE) 6,968 14.2 -42.7°
